^^
Your Local Weather - Clay, NY Station Historical Data
Daily Summary for April 16, 2017 Units:  Metric    English   Both
« Previous Day
Next Day »
Daily Weekly Monthly Yearly Custom
  High: Low: Average:
Temperature: 26.7 °C 16.8 °C 21.1 °C
Dew Point: 15.2 °C 9.9 °C 11.3 °C
Humidity: 71% 36% 54%
Wind Speed: 16.1km/h 1.6km/h 7.9km/h
Wind Gust: 25.7km/h - -
Wind- - WSW
Pressure: 1011.1 hPa 1002.9 hPa -
Precipitation: 0.51 mm    
Historical Graphs
 
 
Tabular Data for April 16, 2017
Time Temperature Dew Point Pressure Wind Wind Speed Wind Gust Humidity Rainfall Rate (Hourly) solar
00:02 19.6 °C 10.6 °C 1011.1 hPa SW 9.7 km/h 14.5 km/h 56% 0 mm 0 W/m2
00:05 19.6 °C 10.3 °C 1011.1 hPa SW 9.7 km/h 14.5 km/h 55% 0 mm 0 W/m2
00:12 19.6 °C 10.3 °C 1011.1 hPa SSW 9.7 km/h 9.7 km/h 55% 0 mm 0 W/m2
00:18 19.6 °C 10.6 °C 1011.1 hPa SSW 8 km/h 11.3 km/h 56% 0 mm 0 W/m2
00:23 19.4 °C 10.4 °C 1011.1 hPa South 6.4 km/h 8 km/h 56% 0 mm 0 W/m2
00:29 19.5 °C 10.5 °C 1011.1 hPa NW 6.4 km/h 6.4 km/h 56% 0 mm 0 W/m2
00:36 19.6 °C 10.6 °C 1011.1 hPa SW 8 km/h 17.7 km/h 56% 0 mm 0 W/m2
00:42 19.6 °C 10.6 °C 1011.1 hPa WSW 9.7 km/h 11.3 km/h 56% 0 mm 0 W/m2
00:48 19.6 °C 10.6 °C 1011.1 hPa WSW 9.7 km/h 11.3 km/h 56% 0 mm 0 W/m2
00:53 19.5 °C 10.5 °C 1011.1 hPa SSW 8 km/h 9.7 km/h 56% 0 mm 0 W/m2
01:00 19.6 °C 10.6 °C 1011.1 hPa SSW 9.7 km/h 9.7 km/h 56% 0 mm 0 W/m2
01:06 19.6 °C 10.8 °C 1010.7 hPa SW 8 km/h 9.7 km/h 57% 0 mm 0 W/m2
01:12 19.6 °C 10.8 °C 1010.7 hPa SSE 8 km/h 11.3 km/h 57% 0 mm 0 W/m2
01:18 19.5 °C 10.8 °C 1010.7 hPa SW 8 km/h 11.3 km/h 57% 0 mm 0 W/m2
01:24 19.4 °C 10.7 °C 1010.7 hPa WSW 8 km/h 8 km/h 57% 0 mm 0 W/m2
01:36 19.3 °C 10.6 °C 1010.7 hPa SW 8 km/h 12.9 km/h 57% 0 mm 0 W/m2
01:42 19.3 °C 10.6 °C 1010.4 hPa SW 8 km/h 8 km/h 57% 0 mm 0 W/m2
01:48 19.2 °C 10.5 °C 1010.4 hPa SW 8 km/h 9.7 km/h 57% 0 mm 0 W/m2
01:54 19.2 °C 10.7 °C 1010.4 hPa SSW 8 km/h 8 km/h 58% 0 mm 0 W/m2
02:00 19.2 °C 10.8 °C 1010 hPa SW 6.4 km/h 6.4 km/h 58% 0 mm 0 W/m2
02:06 19.4 °C 10.7 °C 1010 hPa SW 8 km/h 11.3 km/h 57% 0 mm 0 W/m2
02:12 19.5 °C 10.8 °C 1010 hPa SW 8 km/h 12.9 km/h 57% 0 mm 0 W/m2
02:18 19.6 °C 10.8 °C 1010 hPa SW 8 km/h 16.1 km/h 57% 0 mm 0 W/m2
02:24 19.6 °C 10.8 °C 1010 hPa SW 9.7 km/h 9.7 km/h 57% 0 mm 0 W/m2
02:30 19.6 °C 10.8 °C 1010 hPa SSW 8 km/h 8 km/h 57% 0 mm 0 W/m2
02:36 19.6 °C 10.8 °C 1009.7 hPa WSW 8 km/h 8 km/h 57% 0 mm 0 W/m2
02:42 19.6 °C 10.8 °C 1009.7 hPa WSW 8 km/h 8 km/h 57% 0 mm 0 W/m2
02:48 19.6 °C 10.8 °C 1009.7 hPa South 8 km/h 19.3 km/h 57% 0 mm 0 W/m2
02:54 19.6 °C 10.8 °C 1009.7 hPa SW 6.4 km/h 8 km/h 57% 0 mm 0 W/m2
03:00 19.6 °C 10.8 °C 1009.4 hPa SW 6.4 km/h 6.4 km/h 57% 0 mm 0 W/m2
03:06 19.6 °C 10.8 °C 1009.4 hPa SSW 6.4 km/h 11.3 km/h 57% 0 mm 0 W/m2
03:12 19.6 °C 10.8 °C 1009.4 hPa SE 8 km/h 8 km/h 57% 0 mm 0 W/m2
03:18 19.6 °C 11.1 °C 1009.4 hPa SE 8 km/h 12.9 km/h 58% 0 mm 0 W/m2
03:24 19.6 °C 10.8 °C 1009.4 hPa SW 8 km/h 16.1 km/h 57% 0 mm 0 W/m2
03:30 19.7 °C 10.9 °C 1009.4 hPa SSW 9.7 km/h 9.7 km/h 57% 0 mm 0 W/m2
03:36 19.7 °C 10.9 °C 1009.4 hPa SW 9.7 km/h 11.3 km/h 57% 0 mm 0 W/m2
03:42 19.6 °C 11.1 °C 1009.4 hPa SSE 8 km/h 12.9 km/h 58% 0 mm 0 W/m2
03:48 19.5 °C 11 °C 1009.4 hPa SW 6.4 km/h 12.9 km/h 58% 0 mm 0 W/m2
04:00 19.5 °C 11 °C 1009.4 hPa SW 6.4 km/h 6.4 km/h 58% 0 mm 0 W/m2
04:06 19.4 °C 10.9 °C 1009.4 hPa SSW 6.4 km/h 6.4 km/h 58% 0 mm 0 W/m2
04:12 19.5 °C 11 °C 1009.4 hPa SW 8 km/h 17.7 km/h 58% 0 mm 0 W/m2
04:18 19.4 °C 10.9 °C 1009.4 hPa South 8 km/h 17.7 km/h 58% 0 mm 0 W/m2
04:24 19.4 °C 10.9 °C 1009.4 hPa South 6.4 km/h 8 km/h 58% 0 mm 0 W/m2
04:30 19.4 °C 10.9 °C 1009.4 hPa SSW 8 km/h 8 km/h 58% 0 mm 0 W/m2
04:36 19.4 °C 10.9 °C 1009.4 hPa WSW 8 km/h 11.3 km/h 58% 0 mm 0 W/m2
04:42 19.4 °C 10.9 °C 1009 hPa SW 8 km/h 8 km/h 58% 0 mm 0 W/m2
04:48 19.3 °C 10.8 °C 1009 hPa WSW 6.4 km/h 11.3 km/h 58% 0 mm 0 W/m2
04:54 19.3 °C 10.8 °C 1009 hPa WSW 8 km/h 9.7 km/h 58% 0 mm 0 W/m2
05:00 19.3 °C 10.8 °C 1009 hPa SW 8 km/h 9.7 km/h 58% 0 mm 0 W/m2
05:06 19.3 °C 10.8 °C 1009 hPa SW 8 km/h 11.3 km/h 58% 0 mm 0 W/m2
05:12 19.4 °C 10.9 °C 1009 hPa WSW 8 km/h 8 km/h 58% 0 mm 0 W/m2
05:18 19.4 °C 10.7 °C 1009 hPa SW 9.7 km/h 9.7 km/h 57% 0 mm 0 W/m2
05:24 19.4 °C 10.7 °C 1009 hPa SSW 8 km/h 9.7 km/h 57% 0 mm 0 W/m2
05:30 19.3 °C 10.6 °C 1009 hPa SW 8 km/h 8 km/h 57% 0 mm 0 W/m2
05:36 19.3 °C 10.6 °C 1009 hPa South 6.4 km/h 8 km/h 57% 0 mm 0 W/m2
05:42 19.3 °C 10.8 °C 1009 hPa SW 8 km/h 12.9 km/h 58% 0 mm 0 W/m2
05:48 19.3 °C 10.6 °C 1009 hPa SSE 6.4 km/h 12.9 km/h 57% 0 mm 0 W/m2
05:54 19.3 °C 10.6 °C 1009 hPa SW 6.4 km/h 8 km/h 57% 0 mm 0 W/m2
06:00 19.4 °C 10.7 °C 1009 hPa SW 8 km/h 8 km/h 57% 0 mm 0 W/m2
06:06 19.3 °C 10.6 °C 1009 hPa SW 6.4 km/h 11.3 km/h 57% 0 mm 0 W/m2
06:12 19.2 °C 10.5 °C 1009 hPa SW 8 km/h 8 km/h 57% 0 mm 0 W/m2
06:18 19.2 °C 10.5 °C 1009 hPa SSW 6.4 km/h 8 km/h 57% 0 mm 0 W/m2
06:24 19.2 °C 10.5 °C 1009 hPa SW 8 km/h 11.3 km/h 57% 0 mm 5 W/m2
06:30 19.2 °C 10.5 °C 1009 hPa SSW 8 km/h 8 km/h 57% 0 mm 9 W/m2
06:36 19.2 °C 10.8 °C 1009 hPa West 8 km/h 11.3 km/h 58% 0 mm 12 W/m2
06:42 19.2 °C 10.4 °C 1009 hPa SW 8 km/h 8 km/h 57% 0 mm 18 W/m2
06:48 19.2 °C 10.7 °C 1009 hPa SW 6.4 km/h 8 km/h 58% 0 mm 23 W/m2
06:54 19.1 °C 10.7 °C 1009 hPa WSW 4.8 km/h 9.7 km/h 58% 0 mm 28 W/m2
07:00 19.2 °C 10.4 °C 1009.4 hPa SW 6.4 km/h 6.4 km/h 57% 0 mm 42 W/m2
07:06 19.3 °C 10.6 °C 1009 hPa WSW 8 km/h 8 km/h 57% 0 mm 67 W/m2
07:12 19.4 °C 10.7 °C 1009 hPa SSW 6.4 km/h 11.3 km/h 57% 0 mm 60 W/m2
07:18 19.5 °C 10.8 °C 1009 hPa South 6.4 km/h 11.3 km/h 57% 0 mm 53 W/m2
07:24 19.6 °C 10.6 °C 1009 hPa SW 6.4 km/h 6.4 km/h 56% 0 mm 53 W/m2
07:30 19.7 °C 10.7 °C 1009 hPa South 6.4 km/h 9.7 km/h 56% 0 mm 53 W/m2
07:36 19.8 °C 10.8 °C 1009 hPa SSW 6.4 km/h 9.7 km/h 56% 0 mm 144 W/m2
07:42 20.1 °C 10.8 °C 1008.7 hPa SSW 6.4 km/h 6.4 km/h 55% 0 mm 169 W/m2
07:48 20.3 °C 10.7 °C 1008.7 hPa SW 6.4 km/h 11.3 km/h 54% 0 mm 190 W/m2
07:54 20.5 °C 10.9 °C 1008.7 hPa WSW 6.4 km/h 9.7 km/h 54% 0 mm 209 W/m2
08:00 20.7 °C 10.8 °C 1008.7 hPa SW 6.4 km/h 6.4 km/h 53% 0 mm 204 W/m2
08:06 20.9 °C 10.7 °C 1008.7 hPa SSW 6.4 km/h 9.7 km/h 52% 0 mm 202 W/m2
08:12 21 °C 10.8 °C 1008.7 hPa SW 6.4 km/h 6.4 km/h 52% 0 mm 230 W/m2
08:18 21.2 °C 10.9 °C 1008.7 hPa West 8 km/h 9.7 km/h 52% 0 mm 225 W/m2
08:24 21.4 °C 10.8 °C 1008.7 hPa WSW 8 km/h 11.3 km/h 51% 0 mm 220 W/m2
08:30 21.6 °C 10.7 °C 1008.4 hPa SW 6.4 km/h 6.4 km/h 50% 0 mm 281 W/m2
08:36 21.8 °C 10.6 °C 1008.4 hPa WSW 6.4 km/h 6.4 km/h 49% 0 mm 262 W/m2
08:42 22.1 °C 10.8 °C 1008.4 hPa WSW 6.4 km/h 9.7 km/h 49% 0 mm 288 W/m2
08:48 22.2 °C 10.7 °C 1008.4 hPa WSW 8 km/h 9.7 km/h 48% 0 mm 318 W/m2
08:54 22.3 °C 10.8 °C 1008.4 hPa WNW 8 km/h 11.3 km/h 48% 0 mm 267 W/m2
09:00 22.5 °C 10.6 °C 1008 hPa West 8 km/h 8 km/h 47% 0 mm 327 W/m2
09:38 23.2 °C 10.9 °C 1007.7 hPa WSW 11.3 km/h 11.3 km/h 46% 0 mm 536 W/m2
09:44 23.5 °C 10.9 °C 1007.7 hPa SW 9.7 km/h 19.3 km/h 45% 0 mm 555 W/m2
09:50 23.5 °C 10.6 °C 1007.3 hPa SSW 9.7 km/h 9.7 km/h 44% 0 mm 577 W/m2
09:56 23.8 °C 11.2 °C 1007.7 hPa WSW 9.7 km/h 11.3 km/h 45% 0 mm 596 W/m2
10:02 23.9 °C 10.6 °C 1007.7 hPa SSW 9.7 km/h 12.9 km/h 43% 0 mm 619 W/m2
10:08 23.9 °C 10.6 °C 1007.3 hPa West 11.3 km/h 19.3 km/h 43% 0 mm 643 W/m2
10:14 24.2 °C 10.5 °C 1007.3 hPa SW 9.7 km/h 14.5 km/h 42% 0 mm 671 W/m2
10:20 24.2 °C 10.8 °C 1007.3 hPa WSW 9.7 km/h 9.7 km/h 43% 0 mm 617 W/m2
10:26 24.5 °C 11.1 °C 1007.3 hPa West 9.7 km/h 17.7 km/h 43% 0 mm 647 W/m2
10:32 24.2 °C 11.2 °C 1007.3 hPa WSW 11.3 km/h 17.7 km/h 44% 0 mm 744 W/m2
10:38 24.4 °C 10.7 °C 1007.3 hPa WNW 11.3 km/h 17.7 km/h 42% 0 mm 673 W/m2
10:44 24.5 °C 10.4 °C 1007 hPa West 11.3 km/h 14.5 km/h 41% 0 mm 606 W/m2
10:50 24.4 °C 10.3 °C 1007 hPa SSW 9.7 km/h 14.5 km/h 41% 0 mm 788 W/m2
10:56 24.7 °C 10.6 °C 1007 hPa West 11.3 km/h 14.5 km/h 41% 0 mm 744 W/m2
11:02 25.1 °C 11.6 °C 1007 hPa WNW 9.7 km/h 19.3 km/h 43% 0 mm 780 W/m2
11:08 25 °C 10.8 °C 1006.7 hPa West 8 km/h 22.5 km/h 41% 0 mm 745 W/m2
11:14 24.8 °C 10.3 °C 1006.7 hPa WSW 9.7 km/h 11.3 km/h 40% 0 mm 812 W/m2
11:20 25.2 °C 11 °C 1006.7 hPa SW 11.3 km/h 11.3 km/h 41% 0 mm 777 W/m2
11:26 25.2 °C 11 °C 1006.7 hPa West 11.3 km/h 17.7 km/h 41% 0 mm 854 W/m2
11:32 25.8 °C 11.9 °C 1006.7 hPa SW 9.7 km/h 14.5 km/h 42% 0 mm 838 W/m2
11:38 25.4 °C 10.8 °C 1006.3 hPa WNW 11.3 km/h 14.5 km/h 40% 0 mm 717 W/m2
11:44 25.1 °C 10.5 °C 1006 hPa SSW 14.5 km/h 20.9 km/h 40% 0 mm 638 W/m2
11:50 25.3 °C 11.1 °C 1006.3 hPa West 12.9 km/h 16.1 km/h 41% 0 mm 724 W/m2
11:56 25.3 °C 10.8 °C 1006.3 hPa WSW 11.3 km/h 16.1 km/h 40% 0 mm 812 W/m2
12:02 25.6 °C 11.3 °C 1006 hPa SSW 11.3 km/h 16.1 km/h 41% 0 mm 800 W/m2
12:08 25.7 °C 11.4 °C 1006 hPa South 11.3 km/h 16.1 km/h 41% 0 mm 837 W/m2
12:14 25.6 °C 10.9 °C 1006 hPa SW 11.3 km/h 20.9 km/h 40% 0 mm 835 W/m2
12:20 25.6 °C 11.3 °C 1005.6 hPa WSW 11.3 km/h 14.5 km/h 41% 0 mm 835 W/m2
12:26 25.7 °C 10.7 °C 1005.6 hPa SSW 11.3 km/h 25.7 km/h 39% 0 mm 870 W/m2
12:32 25.7 °C 11.5 °C 1005.6 hPa SW 11.3 km/h 12.9 km/h 41% 0 mm 900 W/m2
12:38 25.9 °C 11.7 °C 1005.3 hPa WSW 6.4 km/h 12.9 km/h 41% 0 mm 953 W/m2
12:44 25.6 °C 11 °C 1005.3 hPa West 9.7 km/h 14.5 km/h 40% 0 mm 287 W/m2
12:50 25.4 °C 10.8 °C 1005 hPa WSW 14.5 km/h 14.5 km/h 40% 0 mm 860 W/m2
12:56 25.4 °C 10.8 °C 1005 hPa SW 12.9 km/h 17.7 km/h 40% 0 mm 213 W/m2
13:02 25.3 °C 10.7 °C 1005 hPa SSW 14.5 km/h 16.1 km/h 40% 0 mm 265 W/m2
13:14 26 °C 11.3 °C 1005 hPa SW 9.7 km/h 14.5 km/h 40% 0 mm 248 W/m2
13:20 26.4 °C 10.9 °C 1004.6 hPa West 9.7 km/h 9.7 km/h 38% 0 mm 884 W/m2
13:26 26.5 °C 11.4 °C 1004.3 hPa WSW 11.3 km/h 11.3 km/h 39% 0 mm 979 W/m2
13:32 26.7 °C 10.8 °C 1004.3 hPa SW 9.7 km/h 19.3 km/h 37% 0 mm 954 W/m2
13:38 26.6 °C 10.7 °C 1004.3 hPa SW 9.7 km/h 25.7 km/h 37% 0 mm 294 W/m2
13:44 26.6 °C 11.1 °C 1003.9 hPa WNW 9.7 km/h 9.7 km/h 38% 0 mm 316 W/m2
13:50 26.6 °C 11.9 °C 1003.9 hPa West 9.7 km/h 9.7 km/h 40% 0 mm 306 W/m2
13:56 26.2 °C 9.9 °C 1003.9 hPa SSW 11.3 km/h 20.9 km/h 36% 0 mm 302 W/m2
14:02 26.5 °C 10.6 °C 1003.9 hPa WSW 12.9 km/h 14.5 km/h 37% 0 mm 316 W/m2
14:08 26.2 °C 10.4 °C 1003.9 hPa WSW 12.9 km/h 14.5 km/h 37% 0 mm 264 W/m2
14:14 26.2 °C 10.7 °C 1003.6 hPa SSW 14.5 km/h 14.5 km/h 38% 0 mm 318 W/m2
14:20 26.3 °C 10.1 °C 1003.3 hPa NW 12.9 km/h 12.9 km/h 36% 0 mm 420 W/m2
14:26 26.3 °C 10 °C 1003.3 hPa SW 16.1 km/h 17.7 km/h 36% 0 mm 292 W/m2
14:32 26.2 °C 10.4 °C 1003.3 hPa WSW 14.5 km/h 16.1 km/h 37% 0 mm 214 W/m2
14:38 26.2 °C 10.4 °C 1003.3 hPa SW 11.3 km/h 17.7 km/h 37% 0 mm 401 W/m2
14:44 26.3 °C 10.8 °C 1002.9 hPa South 8 km/h 14.5 km/h 38% 0 mm 100 W/m2
14:50 25.9 °C 10.5 °C 1003.3 hPa SSW 9.7 km/h 16.1 km/h 38% 0 mm 30 W/m2
14:56 23.7 °C 13.2 °C 1003.9 hPa West 14.5 km/h 17.7 km/h 52% 0 mm 123 W/m2
15:02 22.1 °C 14.2 °C 1003.9 hPa WNW 9.7 km/h 12.9 km/h 61% 0 mm 322 W/m2
15:08 22 °C 14.4 °C 1004.3 hPa WSW 6.4 km/h 12.9 km/h 62% 0 mm 167 W/m2
15:14 21.9 °C 14 °C 1004.3 hPa West 6.4 km/h 14.5 km/h 61% 0 mm 46 W/m2
15:20 21.1 °C 14.5 °C 1004.3 hPa SW 9.7 km/h 9.7 km/h 66% 1.02 mm 255 W/m2
15:26 21.1 °C 14.5 °C 1004.3 hPa West 9.7 km/h 9.7 km/h 66% 1.02 mm 299 W/m2
15:32 21.8 °C 15.2 °C 1004.3 hPa West 8 km/h 12.9 km/h 66% 0 mm 466 W/m2
15:38 21.9 °C 14.6 °C 1004.3 hPa SSW 11.3 km/h 12.9 km/h 63% 0 mm 216 W/m2
15:44 21.9 °C 14.6 °C 1004.3 hPa West 8 km/h 11.3 km/h 63% 0 mm 200 W/m2
15:50 22.1 °C 14.5 °C 1004.3 hPa SW 8 km/h 11.3 km/h 62% 0 mm 345 W/m2
15:56 22.3 °C 14.4 °C 1004.3 hPa SW 11.3 km/h 16.1 km/h 61% 0 mm 114 W/m2
16:02 22.2 °C 14.3 °C 1004.6 hPa WSW 9.7 km/h 11.3 km/h 61% 0 mm 102 W/m2
16:08 22.2 °C 14.3 °C 1004.3 hPa SW 8 km/h 17.7 km/h 61% 0 mm 137 W/m2
16:14 22.2 °C 14.3 °C 1004.6 hPa SW 8 km/h 16.1 km/h 61% 0 mm 192 W/m2
16:20 22.6 °C 14.4 °C 1004.6 hPa West 8 km/h 11.3 km/h 60% 0 mm 230 W/m2
16:26 22.8 °C 14.3 °C 1004.3 hPa SW 9.7 km/h 14.5 km/h 59% 0 mm 290 W/m2
16:32 22.8 °C 13.9 °C 1004.6 hPa West 9.7 km/h 11.3 km/h 57% 0 mm 213 W/m2
16:38 23.4 °C 13.3 °C 1004.6 hPa WSW 11.3 km/h 11.3 km/h 53% 0 mm 213 W/m2
16:44 23.5 °C 13.1 °C 1004.6 hPa WNW 9.7 km/h 11.3 km/h 52% 0 mm 165 W/m2
16:50 23.5 °C 12.2 °C 1005 hPa NW 9.7 km/h 9.7 km/h 49% 0 mm 132 W/m2
16:56 23.3 °C 10.7 °C 1005 hPa WSW 12.9 km/h 16.1 km/h 45% 0 mm 128 W/m2
17:02 23.2 °C 10.6 °C 1005 hPa NW 11.3 km/h 11.3 km/h 45% 0 mm 116 W/m2
17:08 23.2 °C 11.3 °C 1005 hPa NW 8 km/h 11.3 km/h 47% 0 mm 118 W/m2
17:14 23 °C 11.4 °C 1005 hPa NW 8 km/h 9.7 km/h 48% 0 mm 160 W/m2
17:20 22.9 °C 11.3 °C 1005 hPa WNW 8 km/h 12.9 km/h 48% 0 mm 141 W/m2
17:26 22.7 °C 11.4 °C 1005.3 hPa WNW 8 km/h 12.9 km/h 49% 0 mm 83 W/m2
17:32 22.7 °C 10.8 °C 1005.3 hPa West 8 km/h 17.7 km/h 47% 0 mm 167 W/m2
17:38 22.8 °C 11.2 °C 1005.3 hPa West 8 km/h 17.7 km/h 48% 0 mm 160 W/m2
17:44 22.9 °C 11.3 °C 1005.3 hPa WNW 6.4 km/h 14.5 km/h 48% 0 mm 93 W/m2
17:50 22.7 °C 11.1 °C 1005.3 hPa WNW 4.8 km/h 4.8 km/h 48% 0 mm 79 W/m2
17:56 22.4 °C 11.2 °C 1005.6 hPa NW 6.4 km/h 12.9 km/h 49% 0 mm 65 W/m2
18:02 21.8 °C 11.6 °C 1005.6 hPa NW 9.7 km/h 9.7 km/h 52% 0 mm 53 W/m2
18:08 21.5 °C 11.5 °C 1006 hPa West 8 km/h 12.9 km/h 53% 0 mm 32 W/m2
18:14 21.2 °C 11.6 °C 1005.6 hPa NW 8 km/h 12.9 km/h 54% 0 mm 25 W/m2
18:20 20.9 °C 11.6 °C 1006 hPa NW 8 km/h 8 km/h 55% 0 mm 21 W/m2
18:26 20.7 °C 11.6 °C 1006 hPa NW 6.4 km/h 11.3 km/h 56% 0 mm 19 W/m2
18:32 20.6 °C 11.5 °C 1006 hPa WNW 6.4 km/h 9.7 km/h 56% 0 mm 25 W/m2
18:38 20.6 °C 11.4 °C 1006 hPa WNW 6.4 km/h 9.7 km/h 56% 0 mm 67 W/m2
18:44 20.6 °C 11.7 °C 1006 hPa NW 6.4 km/h 6.4 km/h 57% 0 mm 49 W/m2
18:50 20.4 °C 11.6 °C 1006 hPa WNW 6.4 km/h 8 km/h 57% 0 mm 30 W/m2
18:56 20.3 °C 11.8 °C 1006 hPa WNW 6.4 km/h 8 km/h 58% 0 mm 32 W/m2
19:02 20.3 °C 11.5 °C 1006 hPa WNW 6.4 km/h 6.4 km/h 57% 0 mm 28 W/m2
19:08 20.2 °C 11.7 °C 1006 hPa WNW 4.8 km/h 6.4 km/h 58% 0 mm 37 W/m2
19:14 20.2 °C 11.6 °C 1006.3 hPa NNW 4.8 km/h 6.4 km/h 58% 0 mm 16 W/m2
19:20 20.1 °C 11.6 °C 1006.3 hPa WNW 6.4 km/h 6.4 km/h 58% 0 mm 18 W/m2
19:26 20.1 °C 11.6 °C 1006.3 hPa WNW 6.4 km/h 8 km/h 58% 0 mm 39 W/m2
19:32 19.9 °C 11.6 °C 1006.3 hPa WNW 6.4 km/h 6.4 km/h 59% 0 mm 19 W/m2
19:38 19.6 °C 11.4 °C 1006.7 hPa WNW 6.4 km/h 11.3 km/h 59% 0 mm 9 W/m2
19:44 19.6 °C 11.6 °C 1006.7 hPa WNW 8 km/h 8 km/h 60% 0 mm 5 W/m2
19:50 19.4 °C 11.4 °C 1006.7 hPa NW 6.4 km/h 6.4 km/h 60% 0 mm 0 W/m2
19:56 19.3 °C 11.6 °C 1006.7 hPa WNW 6.4 km/h 11.3 km/h 61% 0 mm 0 W/m2
20:02 19.1 °C 11.6 °C 1007 hPa WNW 4.8 km/h 6.4 km/h 62% 0 mm 0 W/m2
20:08 18.8 °C 11.6 °C 1007 hPa North 4.8 km/h 6.4 km/h 63% 0 mm 0 W/m2
20:16 18.6 °C 11.4 °C 1007 hPa NW 4.8 km/h 4.8 km/h 63% 0 mm 0 W/m2
20:22 18.6 °C 11.6 °C 1007 hPa NW 6.4 km/h 8 km/h 64% 0 mm 0 W/m2
20:28 18.4 °C 11.5 °C 1007 hPa WNW 6.4 km/h 8 km/h 64% 0 mm 0 W/m2
20:34 18.3 °C 11.6 °C 1007 hPa NNW 6.4 km/h 9.7 km/h 65% 0 mm 0 W/m2
20:40 18.2 °C 11.7 °C 1007 hPa NW 4.8 km/h 6.4 km/h 66% 0 mm 0 W/m2
20:46 18 °C 11.6 °C 1007.3 hPa WNW 3.2 km/h 3.2 km/h 66% 0 mm 0 W/m2
20:58 18 °C 11.6 °C 1007.3 hPa WNW 4.8 km/h 4.8 km/h 66% 0 mm 0 W/m2
21:04 17.9 °C 11.4 °C 1007.3 hPa West 4.8 km/h 9.7 km/h 66% 0 mm 0 W/m2
21:10 17.8 °C 11.6 °C 1007.7 hPa WNW 4.8 km/h 4.8 km/h 67% 0 mm 0 W/m2
21:16 17.7 °C 11.5 °C 1007.7 hPa West 3.2 km/h 4.8 km/h 67% 0 mm 0 W/m2
21:22 17.6 °C 11.6 °C 1007.7 hPa NW 3.2 km/h 3.2 km/h 68% 0 mm 0 W/m2
21:28 17.6 °C 11.6 °C 1007.7 hPa WNW 3.2 km/h 6.4 km/h 68% 0 mm 0 W/m2
21:34 17.7 °C 11.7 °C 1007.7 hPa WNW 4.8 km/h 11.3 km/h 68% 0 mm 0 W/m2
21:40 17.7 °C 11.7 °C 1007.7 hPa NW 4.8 km/h 4.8 km/h 68% 0 mm 0 W/m2
21:46 17.6 °C 11.6 °C 1007.7 hPa NW 3.2 km/h 4.8 km/h 68% 0 mm 0 W/m2
21:52 17.6 °C 11.8 °C 1008 hPa West 3.2 km/h 3.2 km/h 69% 0 mm 0 W/m2
21:58 17.6 °C 11.8 °C 1008 hPa WSW 3.2 km/h 3.2 km/h 69% 0 mm 0 W/m2
22:04 17.6 °C 11.6 °C 1007.7 hPa WNW 3.2 km/h 11.3 km/h 68% 0 mm 0 W/m2
22:10 17.7 °C 11.7 °C 1008 hPa WNW 3.2 km/h 3.2 km/h 68% 0 mm 0 W/m2
22:16 17.7 °C 11.7 °C 1008 hPa WNW 3.2 km/h 4.8 km/h 68% 0 mm 0 W/m2
22:22 17.8 °C 11.8 °C 1008 hPa WNW 4.8 km/h 4.8 km/h 68% 0 mm 0 W/m2
22:28 17.8 °C 11.8 °C 1008 hPa WNW 3.2 km/h 4.8 km/h 68% 0 mm 0 W/m2
22:34 17.7 °C 11.7 °C 1008 hPa WNW 3.2 km/h 8 km/h 68% 0 mm 0 W/m2
22:42 17.6 °C 11.6 °C 1007.7 hPa West 3.2 km/h 4.8 km/h 68% 0 mm 0 W/m2
22:48 17.4 °C 11.5 °C 1007.7 hPa WNW 3.2 km/h 4.8 km/h 68% 0 mm 0 W/m2
23:00 17.2 °C 11.5 °C 1007.7 hPa WNW 3.2 km/h 3.2 km/h 69% 0 mm 0 W/m2
23:06 17.2 °C 11.4 °C 1007.7 hPa WNW 1.6 km/h 3.2 km/h 69% 0 mm 0 W/m2
23:12 17.1 °C 11.4 °C 1007.7 hPa NW 1.6 km/h 4.8 km/h 69% 0 mm 0 W/m2
23:18 17 °C 11.3 °C 1007.3 hPa NW 1.6 km/h 4.8 km/h 69% 0 mm 0 W/m2
23:24 16.9 °C 11.4 °C 1007.3 hPa NW 1.6 km/h 1.6 km/h 70% 0 mm 0 W/m2
23:30 16.8 °C 11.3 °C 1007.7 hPa NW 1.6 km/h 1.6 km/h 70% 0 mm 0 W/m2
23:36 16.8 °C 11.6 °C 1007.7 hPa NW 1.6 km/h 6.4 km/h 71% 0 mm 0 W/m2
23:42 16.9 °C 11.4 °C 1007.7 hPa WNW 1.6 km/h 4.8 km/h 70% 0 mm 0 W/m2
23:48 16.9 °C 11.4 °C 1007.3 hPa WNW 1.6 km/h 4.8 km/h 70% 0 mm 0 W/m2
23:54 16.8 °C 11.6 °C 1007.7 hPa WNW 1.6 km/h 4.8 km/h 71% 0 mm 0 W/m2
Country Meadow, Clay, NY, USA
Compliments of Weather Underground - 2 mb